Tracking 30685 objects as of 17-Jun-2025
HD Live streaming from Space Station
objects crossing your sky now

STARLINK-6198

Track STARLINK-6198 now!
10-day predictions
STARLINK-6198 is classified as:


NORAD ID: 56768
Int'l Code: 2023-078B
Perigee: 576.9 km
Apogee: 581.4 km
Inclination: 70.0 °
Period: 96.1 minutes
Semi major axis: 6950 km
RCS: Unknown
Launch date: May 31, 2023
Source: United States (US)
Launch site: AIR FORCE WESTERN TEST RANGE (AFWTR)
Your satellite tracking list
Your tracking list is empty




NASA's NSSDC Master Catalog

Two Line Element Set (TLE):
1 56768U 23078B   25168.02839344  .00000440  00000-0  44683-4 0  9994
2 56768  69.9993 274.1432 0003234 270.5779  89.5009 14.98331801113645
Source of the keplerian elements: AFSPC